OK1CMJ-5 Weather Reports


time (UTC)temp
F
wind
direction
speed
knots
gust
knots
rain 1hr
in
rain 24hr
in
rain mn
in
humidity
%
barometer
mb
20260507070736 56 292 0.9 2.6 0.00 0.19 0.01 46 1013.0
20260507065836 57 333 0.9 5.2 0.00 0.19 0.01 44 1012.8
20260507064936 59 347 0.9 3.5 0.00 0.19 0.01 43 1012.6
20260507063136 60 305 1.7 6.1 0.00 0.19 0.01 42 1012.4
20260507062236 60 334 0.0 4.3 0.00 0.19 0.01 42 1012.5
20260507061336 62 314 0.9 5.2 0.00 0.19 0.01 41 1012.3
20260507060436 62 328 1.7 3.5 0.00 0.19 0.01 46 1012.2
20260507055536 61 316 0.9 7.8 0.00 0.19 0.01 48 1012.1
20260507054636 60 343 1.7 5.2 0.00 0.19 0.01 52 1012.0
20260507053736 59 281 0.0 4.3 0.00 0.19 0.01 58 1011.7
20260507052836 58 307 0.0 4.3 0.00 0.19 0.01 64 1011.7
20260507051936 58 269 0.9 4.3 0.00 0.19 0.01 71 1011.6
20260507051036 57 286 0.9 3.5 0.00 0.19 0.01 87 1011.6
20260507050136 56 315 1.7 3.5 0.00 0.19 0.01 99 1011.7
20260507045236 55 314 1.7 3.5 0.00 0.19 0.01 99 1011.4
20260507044336 53 334 0.0 6.1 0.00 0.19 0.01 99 1011.2
20260507043436 53 318 1.7 4.3 0.00 0.19 0.01 99 1011.2
20260507042536 52 295 1.7 3.5 0.00 0.19 0.01 99 1011.1
20260507041636 50 339 1.7 8.7 0.00 0.19 0.01 99 1011.0
20260507040736 50 72 1.7 4.3 0.01 0.19 0.01 99 1011.0
20260507034936 50 252 0.0 2.6 0.01 0.19 0.01 99 1010.8
20260507034036 50 292 0.9 7.8 0.01 0.19 0.01 99 1011.0
20260507033136 50 280 0.9 4.3 0.01 0.19 0.01 99 1010.7
20260507032235 50 289 0.9 3.5 0.01 0.19 0.01 99 1010.7
20260507031336 50 281 0.0 7.0 0.01 0.19 0.01 99 1010.9
20260507025536 49 329 0.0 3.5 0.00 0.18 0.00 99 1010.7
20260507024636 49 307 0.0 3.5 0.00 0.18 0.00 99 1010.7
20260507023736 49 300 0.0 3.5 0.00 0.18 0.00 99 1010.6
20260507022835 49 267 0.9 3.5 0.00 0.18 0.00 99 1010.6
20260507021935 49 206 0.9 2.6 0.00 0.18 0.00 99 1010.7
20260507020135 49 325 0.9 3.5 0.00 0.18 0.00 99 1010.3
20260507015236 49 335 0.9 3.5 0.00 0.18 0.00 99 1010.3
20260507014335 49 340 0.0 2.6 0.00 0.18 0.00 99 1010.3
20260507013435 49 321 0.9 5.2 0.00 0.18 0.00 99 1010.4
20260507012536 49 328 0.0 4.3 0.00 0.18 0.00 99 1010.3
20260507011636 49 296 0.0 2.6 0.00 0.18 0.00 99 1010.2
20260507010736 49 61 0.0 1.7 0.00 0.18 0.00 99 1010.2
20260507004935 49 314 0.0 1.7 0.00 0.18 0.00 99 1010.1
20260507003135 50 311 0.0 1.7 0.00 0.18 0.00 99 1009.8
20260507002235 50 313 0.0 1.7 0.00 0.18 0.00 99 1009.9
20260507000435 51 291 0.0 1.7 0.00 0.18 0.00 99 1010.0
20260506235536 51 292 0.0 1.7 0.00 0.18 0.00 99 1010.0
20260506234635 51 274 0.0 1.7 0.00 0.18 0.00 99 1009.9
20260506233735 51 292 0.0 1.7 0.00 0.18 0.00 99 1009.8
20260506232835 51 305 0.0 1.7 0.00 0.18 0.00 99 1009.6
20260506231935 51 299 0.0 1.7 0.00 0.18 0.00 99 1009.5
20260506231036 51 292 0.0 1.7 0.00 0.18 0.00 99 1009.2
20260506230135 51 314 0.0 2.6 0.00 0.18 0.00 97 1009.4
20260506225236 49 1 0.0 1.7 0.00 0.18 0.00 95 1009.4
20260506223436 49 0 0.0 0.0 0.00 0.18 0.00 92 1009.2
20260506222535 50 0 0.0 0.0 0.00 0.18 0.00 92 1009.2
20260506221636 50 0 0.0 0.0 0.00 0.18 0.00 91 1009.2
20260506215835 51 1 0.0 0.9 0.00 0.18 0.18 90 1009.1
20260506214935 51 1 0.0 0.9 0.00 0.18 0.18 89 1009.2
20260506214035 51 0 0.0 0.0 0.00 0.18 0.18 88 1009.2
20260506213135 52 338 0.0 0.9 0.00 0.18 0.18 88 1009.3
20260506212235 52 1 0.0 1.7 0.00 0.18 0.18 87 1009.2
20260506210435 52 347 0.0 0.9 0.00 0.18 0.18 84 1008.7
20260506205535 52 0 0.0 0.0 0.00 0.18 0.18 83 1008.6
20260506204635 52 0 0.0 0.0 0.01 0.18 0.18 82 1008.6
20260506203736 53 291 0.0 1.7 0.05 0.18 0.18 82 1008.4
20260506202836 53 250 0.0 1.7 0.07 0.18 0.18 81 1008.3
20260506201935 53 225 0.0 0.9 0.08 0.18 0.18 79 1008.2
20260506201036 53 225 0.0 0.9 0.11 0.18 0.18 78 1008.3
20260506195235 53 225 0.0 1.7 0.15 0.18 0.18 74 1008.2
20260506194335 53 303 0.0 1.7 0.14 0.17 0.17 73 1008.5
20260506193435 54 1 0.0 1.7 0.09 0.12 0.12 72 1008.6
20260506192535 54 312 0.0 4.3 0.08 0.11 0.11 71 1008.6
20260506190736 56 313 1.7 4.3 0.05 0.07 0.07 57 1008.6
20260506185835 57 334 0.9 3.5 0.01 0.04 0.04 46 1008.3
20260506184935 58 292 0.0 1.7 0.00 0.02 0.02 41 1007.6
20260506184035 58 292 0.0 1.7 0.00 0.04 0.02 39 1007.2
20260506183135 58 292 0.0 1.7 0.00 0.04 0.02 38 1006.8
20260506182235 58 292 0.0 1.7 0.00 0.12 0.02 39 1006.6
20260506181335 59 314 0.0 2.6 0.00 0.12 0.02 39 1006.6
20260506180435 59 314 0.9 2.6 0.00 0.12 0.02 39 1006.4
20260506174635 60 314 1.7 2.6 0.00 0.12 0.02 39 1006.2
20260506173735 61 319 1.7 3.5 0.00 0.12 0.02 38 1006.2
20260506172835 61 331 1.7 6.1 0.00 0.12 0.02 38 1006.1
20260506171935 62 331 1.7 5.2 0.00 0.12 0.02 38 1006.1
20260506171035 62 1 1.7 4.3 0.00 0.12 0.02 36 1006.2
20260506170135 64 345 1.7 3.5 0.00 0.12 0.02 31 1006.1
20260506165235 65 314 0.9 2.6 0.00 0.12 0.02 29 1005.9
20260506163435 67 11 1.7 3.5 0.00 0.12 0.02 25 1005.7
20260506162535 68 326 1.7 4.3 0.00 0.12 0.02 24 1005.9
20260506161635 69 332 1.7 4.3 0.00 0.12 0.02 25 1006.0
20260506160735 69 317 1.7 5.2 0.00 0.12 0.02 25 1006.0
20260506155836 68 336 2.6 5.2 0.00 0.12 0.02 23 1006.2
20260506154935 68 20 1.7 6.1 0.00 0.12 0.02 24 1006.1
20260506154035 68 337 2.6 5.2 0.00 0.12 0.02 25 1006.3
20260506153136 67 325 0.9 3.5 0.00 0.12 0.02 26 1006.6
20260506152235 65 314 0.9 3.5 0.00 0.12 0.02 30 1006.6
20260506151335 65 319 1.7 6.1 0.00 0.12 0.02 26 1006.6
20260506150435 66 317 3.5 7.0 0.00 0.12 0.02 23 1006.8
20260506145535 66 318 2.6 5.2 0.01 0.12 0.02 26 1006.8
20260506144635 66 315 2.6 5.2 0.01 0.12 0.02 24 1006.9
20260506143735 65 13 2.6 4.3 0.02 0.12 0.02 28 1007.0
20260506142835 65 25 0.9 4.3 0.02 0.12 0.02 34 1007.0
20260506141935 64 1 1.7 3.5 0.02 0.12 0.02 41 1007.4
20260506141035 63 45 1.7 2.6 0.02 0.12 0.02 45 1007.5
20260506140135 62 90 1.7 1.7 0.02 0.12 0.02 43 1007.6
20260506134335 63 90 0.0 1.7 0.01 0.11 0.01 30 1007.9
20260506133435 65 344 0.0 3.5 0.00 0.09 0.00 25 1007.7
20260506132535 66 350 0.9 1.7 0.00 0.09 0.00 23 1007.7
20260506131635 66 1 0.0 1.7 0.00 0.09 0.00 21 1007.6
20260506125835 68 90 0.0 3.5 0.00 0.09 0.00 19 1007.7
20260506124935 69 90 0.9 3.5 0.00 0.09 0.00 19 1007.8
20260506124035 70 129 1.7 3.5 0.00 0.09 0.00 17 1007.9
20260506122235 70 157 1.7 5.2 0.00 0.09 0.00 17 1008.1
20260506121335 71 130 1.7 3.5 0.00 0.09 0.00 14 1008.2
20260506120435 72 144 0.9 3.5 0.00 0.09 0.00 15 1008.2
20260506115535 72 110 1.7 5.2 0.00 0.09 0.00 15 1008.2
20260506111935 70 352 1.7 6.1 0.00 0.09 0.00 17 1008.5
20260506111035 70 110 1.7 3.5 0.00 0.09 0.00 16 1008.5
20260506110135 73 121 1.7 3.5 0.00 0.09 0.00 12 1008.7
20260506104335 76 326 1.7 3.5 0.00 0.09 0.00 11 1008.8
20260506103435 76 262 0.9 3.5 0.00 0.09 0.00 10 1008.8
20260506102535 75 311 0.9 3.5 0.00 0.09 0.00 14 1008.8
20260506101635 73 314 0.0 4.3 0.00 0.09 0.00 16 1009.0
20260506100735 72 311 0.9 3.5 0.00 0.09 0.00 19 1009.2
20260506095835 71 290 0.0 3.5 0.00 0.09 0.00 16 1009.2
20260506094035 72 321 1.7 3.5 0.00 0.09 0.00 17 1009.1
20260506093135 72 318 0.9 6.1 0.00 0.09 0.00 20 1009.1
20260506092235 72 343 1.7 6.1 0.00 0.09 0.00 16 1009.1
20260506091335 71 345 0.9 4.3 0.00 0.09 0.00 20 1009.2
20260506084635 69 323 1.7 3.5 0.00 0.09 0.00 26 1009.1
20260506083735 68 326 0.9 6.1 0.00 0.09 0.00 27 1009.2
20260506081935 66 233 0.9 5.2 0.00 0.09 0.00 32 1009.2
20260506073435 64 295 0.9 7.0 0.00 0.09 0.00 36 1009.2
20260506072535 65 294 0.0 7.0 0.00 0.09 0.00 37 1009.2
20260506071635 64 304 1.7 3.5 0.00 0.09 0.00 40 1009.2